User: anonymous   Login
Location: Charleston
(38.3500°N, 81.6330°W)
Time: 20:53:05
(UTC-04:00)
Language:

Cosmos 2228 - Orbit

View from above orbital plane
View from above orbital plane
View from above satellite
View from above satellite

Ground track
Ground track

The orbit data is extracted from the following two-line orbital elements,

1 22286U 92094A   17206.92514647 +.00000140 +00000-0 +12649-4 0  9999
2 22286 082.5227 337.5742 0020376 357.5547 002.5567 14.87680786307182
Epoch (UTC): 25 July 2017 22:12:12
Eccentricity: 0.0020376
inclination: 82.5227°
perigee height: 591 km
apogee height: 619 km
right ascension of ascending node: 337.5742°
argument of perigee: 357.5547°
revolutions per day: 14.87680786
mean anomaly at epoch: 2.5567°
orbit number at epoch: 30718

The dashed part of the orbit path shows where the satellite is in the earth's shadow,  

DLR